Leeuwarden, Netherlands

1:36 AM CEST on March 27, 2017 (GMT +0200)
Leeuwarden Air Base

Weather History for EHLW - July, 2013

Change the Weather History Date:

Monday, July 8, 2013

  Actual Average Record
Temperature  
Mean Temperature 60 °F -  
Max Temperature 68 °F 67 °F 77 °F (2010)
Min Temperature 51 °F 54 °F 48 °F (1996)
Degree Days  
Heating Degree Days 6    
Growing Degree Days 10 (Base 50)    
Moisture  
Dew Point 55 °F    
Average Humidity 82    
Maximum Humidity 100    
Minimum Humidity 56    
Precipitation  
Precipitation 0.00 in - - ()
Sea Level Pressure  
Sea Level Pressure 30.51 in    
Wind  
Wind Speed 8 mph ()    
Max Wind Speed 15 mph    
Max Gust Speed -    
Visibility 6.5 miles    
Events      
Averages and records for this station are not official NWS values.
T = Trace of Precipitation, MM = Missing Value Source: Averaged Metar Reports

Daily Weather History Graph

Daily Weather History Graph

Search for Another Location

Airport or City:

Trip Planner

Search our weather history database for the weather conditions in past years. The results will help you decide how hot, cold, wet, or windy it might be!

Date:

Astronomy

Jul. 08, 2013 Rise Set
Actual Time 5:20 AM CEST 10:03 PM CEST
Civil Twilight 4:30 AM CEST 10:52 PM CEST
Nautical Twilight 3:08 AM CEST 12:13 AM CEST
Astronomical Twilight Sun does not rise Sun does not rise
Moon 5:48 AM CEST (7/8) 9:38 PM CEST (7/8)
Length of Visible Light 18h 22m
Length of Day
16h 42m
New Moon, 0% of the Moon is Illuminated
Jul 8
New Moon
Jul 16
First Quarter
Jul 22
Full
Jul 29
Last Quarter
Aug 6
New

Hourly Weather History & Observations

Time (CEST) Temp. Dew Point Humidity Pressure Visibility Wind Dir Wind Speed Gust Speed Precip Events Conditions
12:25 AM 53.6 °F 50.0 °F 88% 30.51 in 6.2 mi NNE 5.8 mph - N/A   Unknown
12:55 AM 55.4 °F 51.8 °F 88% 30.51 in 6.2 mi NE 5.8 mph - N/A   Partly Cloudy
1:25 AM 53.6 °F 51.8 °F 94% 30.51 in 6.2 mi NNE 4.6 mph - N/A   Unknown
1:55 AM 51.8 °F 50.0 °F 94% 30.51 in 6.2 mi NE 3.5 mph - N/A   Partly Cloudy
2:00 AM 52 °F 50 °F 89% 30.53 in 11 mi NNE 4.5 mph - -   Partly Cloudy
2:25 AM 51.8 °F 50.0 °F 94% 30.51 in 6.2 mi NNE 5.8 mph - N/A   Partly Cloudy
2:55 AM 51.8 °F 50.0 °F 94% 30.51 in 6.2 mi NE 4.6 mph - N/A   Partly Cloudy
3:25 AM 51.8 °F 50.0 °F 94% 30.51 in 6.2 mi NE 4.6 mph - N/A   Unknown
3:55 AM 51.8 °F 50.0 °F 94% 30.51 in 6.2 mi NE 2.3 mph - N/A   Unknown
4:25 AM 51.8 °F 50.0 °F 94% 30.51 in 6.2 mi NNE 4.6 mph - N/A   Unknown
4:55 AM 51.8 °F 50.0 °F 94% 30.51 in 6.2 mi NNE 3.5 mph - N/A   Partly Cloudy
5:25 AM 53.6 °F 51.8 °F 94% 30.51 in 6.2 mi NE 3.5 mph - N/A   Unknown
5:55 AM 51.8 °F 51.8 °F 100% 30.51 in 6.2 mi NE 3.5 mph - N/A   Unknown
6:25 AM 53.6 °F 51.8 °F 94% 30.51 in 6.2 mi NNE 3.5 mph - N/A   Unknown
6:55 AM 55.4 °F 53.6 °F 94% 30.51 in 6.2 mi NNE 3.5 mph - N/A   Unknown
7:25 AM 57.2 °F 57.2 °F 100% 30.51 in 6.2 mi North 5.8 mph - N/A   Unknown
7:30 AM 59.0 °F 57.2 °F 94% 30.51 in 6.2 mi NNE 5.8 mph - N/A   Partly Cloudy
7:55 AM 60.8 °F 59.0 °F 94% 30.51 in 6.2 mi NNE 6.9 mph - N/A   Unknown
8:00 AM 61 °F 59 °F 92% 30.53 in 9 mi NNE 8.9 mph - -   Partly Cloudy
8:13 AM 60.8 °F 59.0 °F 94% 30.51 in 6.2 mi NNE 10.4 mph - N/A   Scattered Clouds
8:15 AM 60.8 °F 59.0 °F 94% 30.51 in 6.2 mi NNE 10.4 mph - N/A   Mostly Cloudy
8:25 AM 60.8 °F 59.0 °F 94% 30.51 in 6.2 mi NNE 10.4 mph - N/A   Mostly Cloudy
8:55 AM 60.8 °F 59.0 °F 94% 30.51 in 6.2 mi NNE 12.7 mph - N/A   Mostly Cloudy
9:20 AM 62.6 °F 59.0 °F 88% 30.54 in 5.0 mi NNE 10.4 mph - N/A   Overcast
9:25 AM 62.6 °F 59.0 °F 88% 30.54 in 5.0 mi NNE 10.4 mph - N/A   Overcast
9:55 AM 62.6 °F 59.0 °F 88% 30.54 in 6.2 mi NE 11.5 mph - N/A   Mostly Cloudy
9:59 AM 62.6 °F 59.0 °F 88% 30.54 in 6.2 mi NE 11.5 mph - N/A   Partly Cloudy
10:03 AM 62.6 °F 59.0 °F 88% 30.54 in 6.2 mi NNE 10.4 mph - N/A   Scattered Clouds
10:06 AM 62.6 °F 59.0 °F 88% 30.54 in 6.2 mi NNE 10.4 mph - N/A   Mostly Cloudy
10:07 AM 62.6 °F 59.0 °F 88% 30.54 in 6.2 mi NNE 10.4 mph - N/A   Mostly Cloudy
10:25 AM 62.6 °F 57.2 °F 82% 30.54 in 6.2 mi NNE 10.4 mph - N/A   Scattered Clouds
10:29 AM 62.6 °F 57.2 °F 82% 30.54 in 6.2 mi NNE 10.4 mph - N/A   Partly Cloudy
10:49 AM 62.6 °F 57.2 °F 82% 30.54 in 6.2 mi NNE 10.4 mph - N/A   Scattered Clouds
10:55 AM 64.4 °F 59.0 °F 83% 30.54 in 6.2 mi NNE 11.5 mph - N/A   Mostly Cloudy
11:06 AM 64.4 °F 59.0 °F 83% 30.54 in 6.2 mi NE 10.4 mph - N/A   Partly Cloudy
11:25 AM 66.2 °F 59.0 °F 78% 30.51 in 6.2 mi NE 11.5 mph - N/A   Partly Cloudy
11:26 AM 66.2 °F 59.0 °F 78% 30.51 in 6.2 mi NE 11.5 mph - N/A   Unknown
11:55 AM 66.2 °F 59.0 °F 78% 30.51 in 6.2 mi NNE 11.5 mph - N/A   Scattered Clouds
12:25 PM 66.2 °F 59.0 °F 78% 30.51 in 6.2 mi NE 12.7 mph - N/A   Partly Cloudy
12:55 PM 66.2 °F 59.0 °F 78% 30.51 in 6.2 mi NE 12.7 mph - N/A   Partly Cloudy
12:58 PM 66.2 °F 59.0 °F 78% 30.51 in 6.2 mi NE 13.8 mph - N/A   Partly Cloudy
1:25 PM 68.0 °F 59.0 °F 73% 30.51 in 6.2 mi NNE 12.7 mph - N/A   Partly Cloudy
1:55 PM 68.0 °F 57.2 °F 68% 30.51 in 6.2 mi NNE 13.8 mph - N/A   Unknown
2:00 PM 68 °F 58 °F 61% 30.52 in 17 mi NNE 13.4 mph - -   Partly Cloudy
2:25 PM 68.0 °F 55.4 °F 64% 30.51 in 6.2 mi NE 15.0 mph - N/A   Unknown
2:55 PM 68.0 °F 55.4 °F 64% 30.51 in 6.2 mi NNE 12.7 mph - N/A   Unknown
3:25 PM 68.0 °F 55.4 °F 64% 30.51 in 6.2 mi NNE 13.8 mph - N/A   Scattered Clouds
3:55 PM 66.2 °F 53.6 °F 64% 30.51 in 6.2 mi NE 13.8 mph - N/A   Partly Cloudy
4:25 PM 66.2 °F 53.6 °F 64% 30.51 in 6.2 mi NE 13.8 mph - N/A   Unknown
4:30 PM 66.2 °F 53.6 °F 64% 30.51 in 6.2 mi NE 15.0 mph - N/A   Partly Cloudy
4:55 PM 66.2 °F 53.6 °F 64% 30.51 in 6.2 mi NE 15.0 mph - N/A   Unknown
5:25 PM 66.2 °F 53.6 °F 64% 30.48 in 6.2 mi NE 13.8 mph - N/A   Scattered Clouds
5:55 PM 66.2 °F 53.6 °F 64% 30.48 in 6.2 mi NE 15.0 mph - N/A   Unknown
6:25 PM 66.2 °F 50.0 °F 56% 30.48 in 6.2 mi NE 13.8 mph - N/A   Partly Cloudy
6:55 PM 64.4 °F 50.0 °F 59% 30.48 in 6.2 mi NNE 13.8 mph - N/A   Partly Cloudy
7:25 PM 64.4 °F 53.6 °F 68% 30.48 in 6.2 mi NE 13.8 mph - N/A   Unknown
7:55 PM 62.6 °F 53.6 °F 72% 30.48 in 6.2 mi NE 12.7 mph - N/A   Partly Cloudy
8:00 PM 62 °F 53 °F 63% 30.48 in 13 mi NE 13.4 mph - -   Partly Cloudy
8:25 PM 60.8 °F 53.6 °F 77% 30.48 in 6.2 mi NE 12.7 mph - N/A   Partly Cloudy
8:55 PM 60.8 °F 53.6 °F 77% 30.45 in 6.2 mi NE 10.4 mph - N/A   Unknown
9:25 PM 59.0 °F 53.6 °F 82% 30.45 in 6.2 mi NNE 8.1 mph - N/A   Unknown
9:55 PM 57.2 °F 51.8 °F 82% 30.45 in 6.2 mi NNE 9.2 mph - N/A   Unknown
10:25 PM 55.4 °F 51.8 °F 88% 30.45 in 6.2 mi NNE 6.9 mph - N/A   Partly Cloudy
10:55 PM 53.6 °F 51.8 °F 94% 30.45 in 6.2 mi NNE 6.9 mph - N/A   Unknown
11:25 PM 53.6 °F 51.8 °F 94% 30.45 in 6.2 mi NNE 6.9 mph - N/A   Unknown
11:55 PM 53.6 °F 51.8 °F 94% 30.45 in 6.2 mi NNE 5.8 mph - N/A   Unknown